Location: Beetenbrück
(52.8113°N, 9.5946°E)
Time: 22:39:30
(UTC+00:00)

MetOp-A - Pass Details

Date: 14 April 2026
Orbit: 520 x 765 km, 98.3° (Epoch: 12 May)

Event Time Altitude Azimuth Distance (km) Brightness Sun altitude
Exits shadow 22:27:15 48° 73° (ENE) 974 4.4 -26.4°
Maximum altitude 22:27:25 48° 66° (ENE) 972 4.5 -26.4°
Drops below altitude 10° 22:32:18 10° 354° (N) 2,305 7.5 -26.6°
Sets 22:34:43 0° 349° (NNW) 3,245 8.6 -26.7°
